YAOGAN 16A

导读 | 星芒AI

YAOGAN 16A 是中国于2022年发射的一颗遥感卫星,属于遥感十六号系列。该卫星主要用于科学实验、国土资源普查、农作物估产及防灾减灾等领域,具备高分辨率对地观测能力。它由中国航天科技集团公司研制,搭载先进的光学成像设备,能够提供高质量的遥感数据,支持国家在环境监测、城市规划和国防建设等方面的应用需求。

基本信息
目录编号:
39011
目录名称:
YAOGAN 16A
国际标识:
2012-066A
轨道中心:
EARTH
卫星名称:
YAOGAN 16A
卫星全名:
--
卫星状态:
在轨 (已飞行4768 天)
发射日期:
2012-11-25 UTC
国别 :
中国 (CN)
星等 :
--
轨道信息
数据来源 国际轨道数据 AOE轨道数据
星历时间 2025-12-14T23:21:11+0800
1天前
查看轨道信息
2025-12-14T08:00:00+0800
1天前
查看轨道信息
半长轴 7467.05km 7467.046km
偏心率 0.0420329 0.0420228
轨道倾角 63.357° 63.358°
近地点辐角 25.631° 25.600°
升交点赤经 46.378° 48.028°
平近点角 336.491° 117.899°
近地点 775.053km 775.124km
远地点 1402.777km 1402.698km
周期 107.025分钟 107.024分钟
每日圈数 13.454861 13.454872
详细信息
使用方式:
暂无
2D轨道图
3D轨道图
轨道高度分析图
轨道倾角分析图
轨道综合分析图
查看轨道综合分析图